Location: Blangy-Tronville
(49.8790°N, 2.4226°E)
Time: 21:35:32
(UTC+00:00)

IRS-1C - Pass Details

Date: 18 November 2025
Orbit: 813 x 814 km, 99.0° (Epoch: 10 December)

Event Time Altitude Azimuth Distance (km) Brightness Sun altitude
Rises 17:14:21 0° 163° (SSE) 3,327 7.3 -11.4°
Reaches altitude 10° 17:16:40 10° 164° (SSE) 2,399 6.6 -11.8°
Maximum altitude 17:22:00 88° 254° (WSW) 822 4.2 -12.6°
Drops below altitude 10° 17:27:21 10° 344° (NNW) 2,415 6.6 -13.4°
Sets 17:29:42 0° 345° (NNW) 3,351 7.3 -13.8°
